Regional Weather Roundup
Issued by NWS

Home | Current Version | Previous Version | Graphics & Text | Print | Product List | Glossary On
Versions: 1 2 3 4 5 6 7 8 9 10 11 12 13 14 15 16 17 18 19 20 21 22 23 24 25 26 27 28 29 30 31 32 33 34 35 36 37 38 39 40 41 42 43 44 45 46 47 48 49 50
000
ASUS43 KIND 212259
RWRIN

WEATHER ROUNDUP FOR INDIANA
NATIONAL WEATHER SERVICE INDIANAPOLIS IN
600 PM EST WED FEB 21 2018

NOTE: "FAIR" INDICATES FEW OR NO CLOUDS BELOW 12,000 FEET WITH NO
SIGNIFICANT WEATHER AND/OR OBSTRUCTIONS TO VISIBILITY.

* - STATION DOES NOT REPORT WEATHER SUCH AS PRECIPITATION OR FOG.

+ - STATION NOT QUALITY CONTROLLED BY THE NATIONAL WEATHER SERVICE.
    USE DATA WITH CAUTION...ESPECIALLY DEWPOINT AND RELATIVE
    HUMIDITY OBSERVATIONS.

INZ001>003-010>013-019-020-220000-
NORTHWEST INDIANA

CITY           SKY/WX    TMP DP  RH WIND       PRES   REMARKS
GARY /AIRPORT/ CLOUDY    30  25  80 N14       30.60R WCI  20
MONTICELLO +   CLOUDY    33  29  85 NE8       30.53R WCI  26
RENSSELAER +   MOCLDY    32  27  80 N14G20    30.55S WCI  22
VALPARAISO     FAIR      31  26  82 N10G17    30.57R WCI  22

$$

LMZ046-743>745-220000-
SOUTHERN LAKE MICHIGAN

STATION/POSITION TIME  TEMP    WIND        PRES    WAVE
                       AIR SEA DIR/SP/G            HT
                 (UTC) (F)     (DEG/KT/KT) (MB)    (FT)
BURNS HARBOR     2240   30      30/ 16/ 18 1035.9R
MICHIGAN CITY    2230   29      20/ 18/ 19   N/A

$$

INZ004-005-014>016-021>024-220000-
NORTH CENTRAL INDIANA

CITY           SKY/WX    TMP DP  RH WIND       PRES   REMARKS
ELKHART        CLOUDY    32  28  86 N7        30.57R WCI  26
GOSHEN         CLOUDY    34  29  82 MISG      30.55R
SOUTH BEND     MOCLDY    30  25  81 N9        30.57R WCI  22
WARSAW +       CLOUDY    34  30  86 NE6       30.54R WCI  29

$$

INZ006>009-017-018-025>027-220000-
NORTHEAST INDIANA

CITY           SKY/WX    TMP DP  RH WIND       PRES   REMARKS
AUBURN +       MOCLDY    36  32  87 N9        30.55R WCI  29
FORT WAYNE     CLOUDY    38  33  82 NE9       30.53R WCI  31
KENDALLVILLE + CLOUDY    34  31  89 N6        30.54R WCI  29

$$

INZ028-029-035-036-043>045-051>053-220000-
WEST CENTRAL INDIANA

CITY           SKY/WX    TMP DP  RH WIND       PRES   REMARKS
GREENCASTLE +  CLOUDY    36  32  87 NE9       30.51R WCI  29
LAFAYETTE      CLOUDY    34  29  82 NE12      30.53R WCI  25
TERRE HAUTE    CLOUDY    37  33  85 NE10      30.49S WCI  30

$$

INZ030>032-037>040-046>048-054>057-064-065-220000-
CENTRAL INDIANA

CITY           SKY/WX    TMP DP  RH WIND       PRES   REMARKS
COLUMBUS       LGT RAIN  37  37 100 N16       30.49R WCI  28
INDIANAPOLIS   CLOUDY    37  34  89 NE12      30.49R WCI  29
-EAGLE CREEK   CLOUDY    38  32  79 N9        30.50R WCI  31
KOKOMO +       CLOUDY    36  32  85 NE12      30.53R WCI  28
MT COMFORT *+  CLOUDY    37  37 100 N12       30.50R WCI  30
SHELBYVILLE    LGT RAIN  39  35  86 NE12      30.48R WCI  32

$$

INZ033-034-041-042-049-050-058-059-220000-
EAST CENTRAL INDIANA

CITY           SKY/WX    TMP DP  RH WIND       PRES   REMARKS
MUNCIE         CLOUDY    40  34  79 NE12      30.50R WCI  33
RICHMOND +     RAIN      36  36 100 N12G17    30.48R WCI  27

$$

INZ060-061-067>069-081>083-085>088-220000-
SOUTHWEST INDIANA

CITY           SKY/WX    TMP DP  RH WIND       PRES   REMARKS
EVANSVILLE     LGT RAIN  40  40 100 N9        30.44F WCI  34
HUNTINGBURG +  LGT RAIN  42  41  96 N9        30.44S

$$

INZ062-063-066-070>080-084-089>092-220000-
SOUTH CENTRAL AND SOUTHEAST INDIANA

CITY           SKY/WX    TMP DP  RH WIND       PRES   REMARKS
BLOOMINGTON    LGT RAIN  39  36  89 NE7       30.47S WCI  34
FRENCH LICK *+ CLOUDY    41 N/A N/A N6        30.45R
SEYMOUR +      LGT RAIN  41  39  93 N13       30.47R

$$




USA.gov is the U.S. government's official web portal to all federal, state and local government web resources and services.